Regional Weather Roundup
Issued by NWS

Home | Current Version | Previous Version | Text Only | Print | Product List | Glossary Off
Versions: 1 2 3 4 5 6 7 8 9 10 11 12 13 14 15 16 17 18 19 20 21 22 23 24 25 26 27 28 29 30 31 32 33 34 35 36 37 38 39 40 41 42 43 44 45 46 47 48 49 50

000
ASUS43 KDTX 221410
RWRMI
MICHIGAN HOURLY REGIONAL WEATHER ROUNDUP
NATIONAL WEATHER SERVICE DETROIT/PONTIAC MI
1000 AM EDT FRI AUG 22 2014

NOTE: "FAIR" INDICATES FEW OR NO CLOUDS BELOW 12,000 FEET WITH NO
SIGNIFICANT WEATHER AND/OR OBSTRUCTION TO VISIBILITY.

MIZ047>049-052>055-059>063-066>070-074>076-081>083-221500-
SOUTHEAST LOWER MICHIGAN

CITY           SKY/WX    TMP DP  RH WIND       PRES   REMARKS
ADRIAN         PTSUNNY   74  70  87 S5        29.99S
ALMA           CLOUDY    72  68  87 NE5       29.99S
ANN ARBOR      CLOUDY    71  69  93 E6        29.98F FOG
BAD AXE        CLOUDY    64  64 100 NE3       30.04R FOG
CARO           CLOUDY    69  64  82 E5        30.00S
DETROIT CITY   SUNNY     75  66  73 E7        29.99F
DETROIT        CLOUDY    73  68  84 E3        29.99F HAZE
FLINT          SUNNY     76  63  64 SE6       29.99F
GROSSE ILE     CLOUDY    73  70  88 E3        29.97F FOG
HILLSDALE      CLOUDY    71  71 100 SE5       30.00S FOG
HOWELL         CLOUDY    72  69  89 E6        29.99S

CITY           SKY/WX    TMP DP  RH WIND       PRES   REMARKS
JACKSON        CLOUDY    73  70  90 S6        29.98F
LAMBERTVILLE   PTSUNNY   77  70  78 S3        29.98F
LANSING        CLOUDY    72  70  93 SE5       29.99S FOG
LAPEER         FAIR      70  63  78 E3        30.00F
MASON          CLOUDY    71  70  97 SE3       29.99R FOG
MONROE         CLOUDY    73  72  94 CALM      29.97S FOG
MT. CLEMENS    MOSUNNY   72  64  76 E6        29.99F
PONTIAC        PTSUNNY   74  64  71 E5        29.99F
PORT HOPE        N/A     64  62  93 E3        30.02S
PORT HURON     PTSUNNY   70  64  83 CALM      30.00F
TRI CITIES     CLOUDY    71  64  78 E6        30.01S
TROY           SUNNY     73  65  78 NE3       30.01F
SAGINAW HB     CLOUDY    72  66  83 E5        30.00R
$$
MIZ043>046-050>051-056>058-064>065-071>073-077>080-221500-
SOUTHWEST LOWER MICHIGAN

CITY           SKY/WX    TMP DP  RH WIND       PRES   REMARKS
BATTLE CREEK   CLOUDY    72  68  87 SE6       29.99S
BENTON HARBOR  CLOUDY    74  71  91 SE7       29.96R
BIG RAPIDS     CLOUDY    70  67  90 S7        29.99S
COLDWATER      CLOUDY    73  71  96 S3        29.98S FOG
FREMONT        CLOUDY    70  69  98 E5        29.97S FOG
HOLLAND        CLOUDY    73  71  93 S3        29.97S FOG
GRAND RAPIDS   CLOUDY    72  72 100 E6        29.97S FOG
IONIA          FOG       70  69  99 CALM      29.98R VSB 1/4
KALAMAZOO      FOG       72  69  90 S7        29.98S VSB 1
LUDINGTON      CLOUDY    69  68  95 E3        29.97S
MARSHALL       CLOUDY    71  69  93 MISG      29.98S
MOUNT PLEASANT CLOUDY    71  65  81 SE3       29.99F
MUSKEGON       CLOUDY    76  70  82 SE8       29.96S
SOUTH HAVEN    CLOUDY    73  73 100 S3        29.97R FOG
$$
MIZ016>042-221500-
NORTHERN LOWER MICHIGAN

CITY           SKY/WX    TMP DP  RH WIND       PRES   REMARKS
ALPENA         CLOUDY    64  64 100 SE6       30.03S
BEAVER ISLAND  CLOUDY    68  66  94 E6        29.99F
BELLAIRE       CLOUDY    71  65  80 CALM      29.99S
CADILLAC       CLOUDY    69  64  83 SE7       30.01S
CHARLEVOIX     CLOUDY    70  68  93 E5        30.02S
FRANKFORT      CLOUDY    72  65  78 SE6       29.98R
GAYLORD        CLOUDY    67  62  84 SE6       30.02S
GRAYLING       CLOUDY    69  65  85 CALM      30.02S
HARBOR SPRINGS CLOUDY    68  64  88 NE7       30.01R
HOUGHTON LAKE  CLOUDY    67  63  87 SE7       30.03R
MANISTEE       CLOUDY    68  64  88 E5        29.98S
OSCODA         CLOUDY    65  64  94 SE3       30.01F
PELLSTON       LGT RAIN  66  64  93 E3        30.02S
ROGERS CITY    SUNNY     69  67  94 E5        30.03F
TRAVERSE CITY  CLOUDY    72  64  76 SE5       29.98S
$$
MIZ007>008-015-221500-
EASTERN UPPER MICHIGAN

CITY           SKY/WX    TMP DP  RH WIND       PRES   REMARKS
KINROSS        PTSUNNY   68  64  88 SE5       30.02S
MACKINAC ISLAN CLOUDY    64  64 100 SE6       30.01S
NEWBERRY       CLOUDY    62  61  97 CALM      30.01R
S. S. MARIE    FOG       64  63  96 VRB3      30.02F VSB 1/4
MUNISING         N/A     68  62  81 CALM      29.99S
$$
MIZ004>006-011>014-085-221500-
CENTRAL UPPER MICHIGAN

CITY           SKY/WX    TMP DP  RH WIND       PRES   REMARKS
MANISTIQUE     CLOUDY    66  64  91 E3        29.98F
ESCANABA       CLOUDY    68  63  83 E6        29.98R
MENOMINEE      CLOUDY    68  66  94 SE5       29.96R
SAWYER-GWINN   CLOUDY    66  61  82 SE6       29.99F
$$
MIZ001>003-009>011-084-221500-
WESTERN UPPER MICHIGAN

CITY           SKY/WX    TMP DP  RH WIND       PRES   REMARKS
IRON MOUNTAIN  CLOUDY    65  62  90 E5        29.97S FOG
HOUGHTON       CLOUDY    64  59  83 E8        29.98S
COPPER HARBOR    N/A     61  57  87 CALM      29.98F
IRONWOOD       CLOUDY    66  66 100 E3        29.93S
$$

ABBREVIATIONS USED IN REMARKS
   TC - TEMPERATURE IN CELSIUS
  WCI - WIND CHILL INDEX
   HX - HEAT INDEX
  VSB - VISIBILITY



USA.gov is the U.S. government's official web portal to all federal, state and local government web resources and services.